User: anonymous   Login
Location: Équennes
(49.7375°N, 1.9622°E)
Time: 04:10:38
(UTC+00:00)
Language:

Cosmos 1867 - Orbit

View from above orbital plane
View from above orbital plane
View from above satellite
View from above satellite

Ground track
Ground track

The orbit data is extracted from the following two-line orbital elements,

1 18187U 87060A   23152.53489862 -.00000031  00000-0  25940-4 0  9993
2 18187  65.0108 260.5678 0014259 277.5314  82.4150 14.31208532875066
Epoch (UTC): 01 June 2023 12:50:15
Eccentricity: 0.0014259
inclination: 65.0108°
perigee height: 777 km
apogee height: 798 km
right ascension of ascending node: 260.5678°
argument of perigee: 277.5314°
revolutions per day: 14.31208532
mean anomaly at epoch: 82.4150°
orbit number at epoch: 87506

The dashed part of the orbit path shows where the satellite is in the earth's shadow,  

DLR